Location: Ffald-y-Brenin
(52.0833°N, 4.0000°W)
Time: 04:04:46
(UTC+00:00)

Cosmos 1864 Rocket - Pass Details

Date: 18 February 2020
Orbit: 951 x 997 km, 82.9° (Epoch: 29 March)

Event Time Altitude Azimuth Distance (km) Brightness Sun altitude
Rises 06:02:12 0° 349° (N) 3,641 7.4 -13.5°
Reaches altitude 10° 06:04:42 10° 350° (N) 2,691 6.7 -13.2°
Maximum altitude 06:10:52 90° 343° (NNW) 962 4.5 -12.2°
Drops below altitude 10° 06:17:01 10° 172° (S) 2,685 7.0 -11.3°
Sets 06:19:30 0° 173° (S) 3,632 7.7 -10.9°
